Tracking 20719 objects as of 26-May-2020
HD Live streaming from Space Station
objects crossing your sky now

LEMUR 2 ARTFISCHER

Track LEMUR 2 ARTFISCHER now!
10-day predictions
LEMUR 2 ARTFISCHER is classified as:


NORAD ID: 42881
Int'l Code: 2017-042BJ
Perigee: 441.7 km
Apogee: 459.1 km
Inclination: 96.9 °
Period: 93.4 minutes
Semi major axis: 6821 km
RCS: Unknown
Launch date: July 14, 2017
Source: United States (US)
Launch site: TYURATAM MISSILE AND SPACE COMPLEX (TTMTR)
aabbcc
Your satellite tracking list
Your tracking list is empty




NASA's NSSDC Master Catalog

Two Line Element Set (TLE):
1 42881U 17042BJ  20146.61675570  .00003401  00000-0  84255-4 0  9993
2 42881  96.8931  15.2008 0012785  56.9789 303.2685 15.40964192160537
Source of the keplerian elements: AFSPC